Time,TemperatureF,DewpointF,PressureIn,WindDirection,WindDirectionDegrees,WindSpeedMPH,WindSpeedGustMPH,Humidity,HourlyPrecipIn,Conditions,Clouds,dailyrainin,SoftwareType,DateUTC
2013-04-17 00:00:00,47.0,45.0,-100.00,North,-999,-999.0,-999.0,94,-99.99,,,-99.99,,2013-04-16 23:00:00,
2013-04-17 00:42:00,47.0,45.0,-100.00,North,-999,-999.0,-999.0,94,-99.99,,,-99.99,,2013-04-16 23:42:00,
2013-04-17 00:51:00,47.0,45.0,-100.00,North,-999,-999.0,-999.0,94,-99.99,,,-99.99,,2013-04-16 23:51:00,
2013-04-17 01:00:00,47.0,46.0,-100.00,North,-999,-999.0,-999.0,96,-99.99,,,-99.99,,2013-04-17 00:00:00,
2013-04-17 01:42:00,47.0,46.0,-100.00,North,-999,-999.0,-999.0,96,-99.99,,,-99.99,,2013-04-17 00:42:00,
2013-04-17 01:52:00,47.0,46.0,-100.00,North,-999,-999.0,-999.0,96,-99.99,,,-99.99,,2013-04-17 00:52:00,
2013-04-17 02:00:00,47.0,47.0,-100.00,North,-999,-999.0,-999.0,98,-99.99,,,-99.99,,2013-04-17 01:00:00,
2013-04-17 02:41:00,47.0,47.0,-100.00,North,-999,-999.0,-999.0,98,-99.99,,,-99.99,,2013-04-17 01:41:00,
2013-04-17 02:52:00,47.0,47.0,-100.00,North,-999,-999.0,-999.0,98,-99.99,,,-99.99,,2013-04-17 01:52:00,
2013-04-17 03:00:00,47.0,46.0,-100.00,North,-999,-999.0,-999.0,96,-99.99,,,-99.99,,2013-04-17 02:00:00,
2013-04-17 03:42:00,47.0,46.0,-100.00,North,-999,-999.0,-999.0,96,-99.99,,,-99.99,,2013-04-17 02:42:00,
2013-04-17 03:52:00,47.0,46.0,-100.00,North,-999,-999.0,-999.0,96,-99.99,,,-99.99,,2013-04-17 02:52:00,
2013-04-17 04:00:00,46.0,46.0,-100.00,North,-999,-999.0,-999.0,99,-99.99,,,-99.99,,2013-04-17 03:00:00,
2013-04-17 04:42:00,46.0,46.0,-100.00,North,-999,-999.0,-999.0,99,-99.99,,,-99.99,,2013-04-17 03:42:00,
2013-04-17 04:53:00,46.0,46.0,-100.00,North,-999,-999.0,-999.0,99,-99.99,,,-99.99,,2013-04-17 03:53:00,
2013-04-17 05:00:00,46.0,46.0,-100.00,North,-999,-999.0,-999.0,100,-99.99,,,-99.99,,2013-04-17 04:00:00,
2013-04-17 05:42:00,46.0,46.0,-100.00,North,-999,-999.0,-999.0,100,-99.99,,,-99.99,,2013-04-17 04:42:00,
2013-04-17 05:52:00,46.0,46.0,-100.00,North,-999,-999.0,-999.0,100,-99.99,,,-99.99,,2013-04-17 04:52:00,
2013-04-17 06:00:00,46.0,46.0,-100.00,North,-999,-999.0,-999.0,100,-99.99,,,-99.99,,2013-04-17 05:00:00,
2013-04-17 06:42:00,46.0,46.0,-100.00,North,-999,-999.0,-999.0,100,-99.99,,,-99.99,,2013-04-17 05:42:00,
2013-04-17 06:52:00,46.0,46.0,-100.00,North,-999,-999.0,-999.0,100,-99.99,,,-99.99,,2013-04-17 05:52:00,
2013-04-17 07:00:00,48.0,48.0,-100.00,North,-999,-999.0,-999.0,100,-99.99,,,-99.99,,2013-04-17 06:00:00,
2013-04-17 07:42:00,48.0,48.0,-100.00,North,-999,-999.0,-999.0,100,-99.99,,,-99.99,,2013-04-17 06:42:00,
2013-04-17 07:51:00,48.0,48.0,-100.00,North,-999,-999.0,-999.0,100,-99.99,,,-99.99,,2013-04-17 06:51:00,
2013-04-17 08:00:00,51.0,51.0,-100.00,North,-999,-999.0,-999.0,97,-99.99,,,-99.99,,2013-04-17 07:00:00,
2013-04-17 08:42:00,51.0,51.0,-100.00,North,-999,-999.0,-999.0,97,-99.99,,,-99.99,,2013-04-17 07:42:00,
2013-04-17 08:52:00,51.0,51.0,-100.00,North,-999,-999.0,-999.0,97,-99.99,,,-99.99,,2013-04-17 07:52:00,
2013-04-17 09:00:00,51.0,49.0,-100.00,North,-999,-999.0,-999.0,94,-99.99,,,-99.99,,2013-04-17 08:00:00,
2013-04-17 09:41:00,51.0,49.0,-100.00,North,-999,-999.0,-999.0,94,-99.99,,,-99.99,,2013-04-17 08:41:00,
2013-04-17 09:52:00,51.0,49.0,-100.00,North,-999,-999.0,-999.0,94,-99.99,,,-99.99,,2013-04-17 08:52:00,
2013-04-17 10:00:00,49.0,49.0,-100.00,North,-999,-999.0,-999.0,100,-99.99,,,-99.99,,2013-04-17 09:00:00,
2013-04-17 10:42:00,49.0,49.0,-100.00,North,-999,-999.0,-999.0,100,-99.99,,,-99.99,,2013-04-17 09:42:00,
2013-04-17 10:52:00,49.0,49.0,-100.00,North,-999,-999.0,-999.0,100,-99.99,,,-99.99,,2013-04-17 09:52:00,
2013-04-17 11:00:00,49.0,49.0,-100.00,North,-999,-999.0,-999.0,100,-99.99,,,-99.99,,2013-04-17 10:00:00,
2013-04-17 11:42:00,49.0,49.0,-100.00,North,-999,-999.0,-999.0,100,-99.99,,,-99.99,,2013-04-17 10:42:00,
2013-04-17 11:52:00,49.0,49.0,-100.00,North,-999,-999.0,-999.0,100,-99.99,,,-99.99,,2013-04-17 10:52:00,
2013-04-17 13:00:00,51.0,50.0,-100.00,North,-999,-999.0,-999.0,94,-99.99,,,-99.99,,2013-04-17 12:00:00,
2013-04-17 13:42:00,51.0,50.0,-100.00,North,-999,-999.0,-999.0,94,-99.99,,,-99.99,,2013-04-17 12:42:00,
2013-04-17 13:51:00,51.0,50.0,-100.00,North,-999,-999.0,-999.0,94,-99.99,,,-99.99,,2013-04-17 12:51:00,
2013-04-17 14:00:00,51.0,50.0,-100.00,North,-999,-999.0,-999.0,94,-99.99,,,-99.99,,2013-04-17 13:00:00,
2013-04-17 14:41:00,51.0,50.0,-100.00,North,-999,-999.0,-999.0,94,-99.99,,,-99.99,,2013-04-17 13:41:00,
2013-04-17 14:51:00,51.0,50.0,-100.00,North,-999,-999.0,-999.0,94,-99.99,,,-99.99,,2013-04-17 13:51:00,
2013-04-17 15:00:00,49.0,49.0,-100.00,North,-999,-999.0,-999.0,98,-99.99,,,-99.99,,2013-04-17 14:00:00,
2013-04-17 15:41:00,49.0,49.0,-100.00,North,-999,-999.0,-999.0,98,-99.99,,,-99.99,,2013-04-17 14:41:00,
2013-04-17 15:52:00,49.0,49.0,-100.00,North,-999,-999.0,-999.0,98,-99.99,,,-99.99,,2013-04-17 14:52:00,
2013-04-17 16:00:00,49.0,49.0,-100.00,North,-999,-999.0,-999.0,98,-99.99,,,-99.99,,2013-04-17 15:00:00,
2013-04-17 16:42:00,49.0,49.0,-100.00,North,-999,-999.0,-999.0,98,-99.99,,,-99.99,,2013-04-17 15:42:00,
2013-04-17 16:52:00,49.0,49.0,-100.00,North,-999,-999.0,-999.0,98,-99.99,,,-99.99,,2013-04-17 15:52:00,
2013-04-17 17:00:00,56.0,47.0,-100.00,North,-999,-999.0,-999.0,72,-99.99,,,-99.99,,2013-04-17 16:00:00,
2013-04-17 17:41:00,56.0,47.0,-100.00,North,-999,-999.0,-999.0,72,-99.99,,,-99.99,,2013-04-17 16:41:00,
2013-04-17 17:52:00,56.0,47.0,-100.00,North,-999,-999.0,-999.0,72,-99.99,,,-99.99,,2013-04-17 16:52:00,
2013-04-17 18:00:00,56.0,43.0,-100.00,North,-999,-999.0,-999.0,61,-99.99,,,-99.99,,2013-04-17 17:00:00,
2013-04-17 18:42:00,56.0,43.0,-100.00,North,-999,-999.0,-999.0,61,-99.99,,,-99.99,,2013-04-17 17:42:00,
2013-04-17 18:51:00,56.0,43.0,-100.00,North,-999,-999.0,-999.0,61,-99.99,,,-99.99,,2013-04-17 17:51:00,
2013-04-17 19:00:00,54.0,42.0,-100.00,North,-999,-999.0,-999.0,64,-99.99,,,-99.99,,2013-04-17 18:00:00,
2013-04-17 19:41:00,54.0,42.0,-100.00,North,-999,-999.0,-999.0,64,-99.99,,,-99.99,,2013-04-17 18:41:00,
2013-04-17 19:51:00,54.0,42.0,-100.00,North,-999,-999.0,-999.0,64,-99.99,,,-99.99,,2013-04-17 18:51:00,
2013-04-17 20:00:00,52.0,43.0,-100.00,North,-999,-999.0,-999.0,71,-99.99,,,-99.99,,2013-04-17 19:00:00,
2013-04-17 20:41:00,52.0,43.0,-100.00,North,-999,-999.0,-999.0,71,-99.99,,,-99.99,,2013-04-17 19:41:00,
2013-04-17 20:52:00,52.0,43.0,-100.00,North,-999,-999.0,-999.0,71,-99.99,,,-99.99,,2013-04-17 19:52:00,
2013-04-17 21:00:00,51.0,43.0,-100.00,North,-999,-999.0,-999.0,73,-99.99,,,-99.99,,2013-04-17 20:00:00,
2013-04-17 21:41:00,51.0,43.0,-100.00,North,-999,-999.0,-999.0,73,-99.99,,,-99.99,,2013-04-17 20:41:00,
2013-04-17 21:52:00,51.0,43.0,-100.00,North,-999,-999.0,-999.0,73,-99.99,,,-99.99,,2013-04-17 20:52:00,
2013-04-17 22:00:00,51.0,43.0,-100.00,North,-999,-999.0,-999.0,72,-99.99,,,-99.99,,2013-04-17 21:00:00,
2013-04-17 22:42:00,51.0,43.0,-100.00,North,-999,-999.0,-999.0,72,-99.99,,,-99.99,,2013-04-17 21:42:00,
2013-04-17 22:53:00,51.0,43.0,-100.00,North,-999,-999.0,-999.0,72,-99.99,,,-99.99,,2013-04-17 21:53:00,
2013-04-17 23:00:00,51.0,42.0,-100.00,North,-999,-999.0,-999.0,72,-99.99,,,-99.99,,2013-04-17 22:00:00,
2013-04-17 23:42:00,51.0,42.0,-100.00,North,-999,-999.0,-999.0,72,-99.99,,,-99.99,,2013-04-17 22:42:00,
2013-04-17 23:52:00,51.0,42.0,-100.00,North,-999,-999.0,-999.0,72,-99.99,,,-99.99,,2013-04-17 22:52:00,